sat.trackr.live / text

‹ back to catalog

O3B FM15

NORAD 43231 · 2018-024A

PAYLOAD ACTIVE UNKNOWN

§ Identity

Operator
Country
O3B
Launch date
2018-03-09
Launch site
FRGUI
Launch vehicle
Mass (kg)
RCS (m²)

Purposes: comms

External: N2YO · Heavens-Above · Gunter

§ Orbital elements

Epoch: 2026-09-10T01:06:34.875072Z

Period
287.93 min
Inclination
0.0560°
Eccentricity
0.0002557
Mean motion
5.00115846 rev/d
Perigee alt
8,062.2 km
Apogee alt
8,069.6 km
Semi-major
14,444.0 km
B*
0.0000e+0
RAAN
356.3517°
Arg perigee
173.1979°
Mean anomaly
190.4547°
Rev number
15,527

§ Raw data

O3B FM151 43231U 18024A   26253.04623698 -.00000028  00000+0  00000+0 0  99932 43231   0.0560 356.3517 0002557 173.1979 190.4547  5.00115846155272

JSON: /api/v1/satellites/43231 · /tle

For live sub-satellite position, see the globe view (requires WebGL).

§ Visibility from observer

Set your observer location to see the next 7 days of passes ≥ 10°. The values pass through the URL so the page stays shareable.

No JS? Fill the form by hand. The geolocation button needs JavaScript.